Simultaneous Nadir Overpasses (SNOs) Predictions

Prediction of SNOs over PacNW region [( 10.00, 139.50) to ( 22.70, 165.60)] between AQUA and NPP Satellites:

Table of predicted SNOs over PacNW region for the next 30.0 days since TLE Epoch: 3/2/2018
Index Date (AQUA) Time (AQUA) AQUA Lat,Lon Date (NPP) Time (NPP) NPP Lat,Lon Distance(km) Time Diff (sec)
1 03/08/2018 15:10:34 22.62, 159.86 03/08/2018 15:10:38 23.20, 157.31 268.99 4
2 03/16/2018 16:00:04 22.62, 147.50 03/16/2018 16:01:26 23.29, 144.63 303.34 82
3 03/24/2018 15:10:39 22.60, 159.86 03/24/2018 15:10:46 23.18, 157.27 273.12 7




NCC Satellite Simultaneous Nadir Overpasses (SNOs) Prediction Service
